Weather History for State College, PA

Change the Weather History Date:

Wednesday, November 21, 2012

  Actual Average Record
Temperature  
Mean Temperature 38 °F -  
Max Temperature 51 °F 47 °F 72 °F (1991)
Min Temperature 26 °F 29 °F 13 °F (1987)
Degree Days  
Heating Degree Days 26    
Moisture  
Dew Point 28 °F    
Average Humidity 73    
Maximum Humidity 95    
Minimum Humidity 35    
Precipitation  
Precipitation 0.00 in - - ()
Sea Level Pressure  
Sea Level Pressure 30.18 in    
Wind  
Wind Speed 0 mph (North)    
Max Wind Speed 0 mph    
Max Gust Speed -    
Visibility 8 miles    
Events      
Averages and records for this station are not official NWS values.
T = Trace of Precipitation, MM = Missing Value Source: NWS Daily Summary

Daily Weather History Graph

Daily Weather History Graph

Search for Another Location

Airport:

Trip Planner

Search our weather history database for the weather conditions in past years. The results will help you decide how hot, cold, wet, or windy it might be!

Date:

Astronomy

Nov. 21, 2012 Rise Set
Actual Time 7:06 AM EST 4:48 PM EST
Civil Twilight 6:36 AM EST 5:18 PM EST
Nautical Twilight 6:02 AM EST 5:51 PM EST
Astronomical Twilight 5:29 AM EST 6:24 PM EST
Moon 1:06 PM EST (11/21) 12:20 AM EST (11/21)
Length of Visible Light 10h 42m
Length of Day
9h 42m
First Quarter, 61% of the Moon is Illuminated
Nov 21
First Quarter
Nov 28
Full
Dec 6
Last Quarter
Dec 13
New
Dec 20
First Quarter

Hourly Weather History & Observations

Time (EST) Temp. Dew Point Humidity Pressure Visibility Wind Dir Wind Speed Gust Speed Precip Events Conditions
12:15 AM 34.7 °F 30.7 °F 85% 30.13 in 10.0 mi Calm Calm - N/A   Scattered Clouds
12:35 AM 33.8 °F 30.7 °F 89% 30.13 in 10.0 mi Calm Calm - N/A   Scattered Clouds
12:55 AM 33.3 °F 30.7 °F 90% 30.13 in 10.0 mi Calm Calm - N/A   Clear
1:15 AM 33.6 °F 30.0 °F 87% 30.13 in 10.0 mi Calm Calm - N/A   Clear
1:35 AM 32.9 °F 29.8 °F 88% 30.13 in 10.0 mi Calm Calm - N/A   Clear
1:55 AM 32.4 °F 29.3 °F 88% 30.14 in 7.0 mi Calm Calm - N/A   Clear
2:15 AM 32.0 °F 29.5 °F 90% 30.14 in 5.0 mi Calm Calm - N/A   Clear
2:35 AM 31.1 °F 29.1 °F 92% 30.14 in 5.0 mi Calm Calm - N/A   Clear
2:55 AM 30.7 °F 28.9 °F 93% 30.15 in 5.0 mi Calm Calm - N/A   Clear
3:15 AM 31.5 °F 29.8 °F 94% 30.15 in 4.0 mi Calm Calm - N/A   Clear
3:35 AM 31.1 °F 29.7 °F 94% 30.15 in 3.0 mi Calm Calm - N/A   Clear
3:55 AM 30.2 °F 28.8 °F 94% 30.15 in 7.0 mi Calm Calm - N/A   Clear
4:15 AM 30.0 °F 28.4 °F 94% 30.15 in 5.0 mi Calm Calm - N/A   Clear
4:35 AM 27.7 °F 26.4 °F 95% 30.15 in 1.0 mi Calm Calm - N/A   Mist
5:53 AM 28.4 °F 26.6 °F 93% 30.17 in 4.0 mi Calm Calm - N/A   Scattered Clouds
6:53 AM 26.6 °F 24.8 °F 93% 30.18 in 4.0 mi Calm Calm - N/A   Clear
7:53 AM 26.6 °F 24.8 °F 93% 30.20 in 4.0 mi Calm Calm - N/A   Clear
8:53 AM 32.0 °F 30.2 °F 93% 30.22 in 4.0 mi Calm Calm - N/A   Clear
9:53 AM 35.6 °F 32.0 °F 87% 30.22 in 5.0 mi Calm Calm - N/A   Clear
10:53 AM 42.8 °F 33.8 °F 70% 30.22 in 7.0 mi Calm Calm - N/A   Clear
11:53 AM 46.4 °F 32.0 °F 57% 30.20 in 7.0 mi Calm Calm - N/A   Clear
12:53 PM 50.0 °F 26.6 °F 40% 30.17 in 10.0 mi Calm Calm - N/A   Clear
1:53 PM 51.8 °F 26.6 °F 38% 30.17 in 10.0 mi Calm Calm - N/A   Clear
2:53 PM 51.8 °F 26.6 °F 38% 30.16 in 10.0 mi Calm Calm - N/A   Clear
3:53 PM 51.8 °F 24.8 °F 35% 30.18 in 10.0 mi Calm Calm - N/A   Clear
4:53 PM 50.0 °F 24.8 °F 37% 30.18 in 10.0 mi Calm Calm - N/A   Clear
5:53 PM 48.2 °F 24.8 °F 40% 30.19 in 10.0 mi Calm Calm - N/A   Clear
6:53 PM 44.6 °F 24.8 °F 46% 30.20 in 10.0 mi Calm Calm - N/A   Clear
7:53 PM 42.8 °F 26.6 °F 53% 30.20 in 10.0 mi Calm Calm - N/A   Clear
8:15 PM 41.7 °F 24.8 °F 51% 30.21 in 10.0 mi Calm Calm - N/A   Clear
8:35 PM 37.2 °F 26.6 °F 65% 30.20 in 10.0 mi Calm Calm - N/A   Clear
8:53 PM 37.4 °F 26.6 °F 65% 30.21 in 10.0 mi Calm Calm - N/A   Clear
8:55 PM 37.0 °F 26.4 °F 65% 30.21 in 10.0 mi Calm Calm - N/A   Clear
9:15 PM 37.6 °F 26.6 °F 65% 30.21 in 10.0 mi Calm Calm - N/A   Clear
9:35 PM 36.7 °F 25.5 °F 64% 30.21 in 10.0 mi Calm Calm - N/A   Clear
9:55 PM 36.9 °F 25.3 °F 63% 30.21 in 10.0 mi Calm Calm - N/A   Clear
10:15 PM 36.1 °F 25.7 °F 66% 30.21 in 10.0 mi Calm Calm - N/A   Clear
10:35 PM 33.1 °F 25.2 °F 73% 30.22 in 10.0 mi Calm Calm - N/A   Clear
10:55 PM 32.7 °F 25.5 °F 75% 30.22 in 10.0 mi Calm Calm - N/A   Clear
11:15 PM 35.6 °F 25.3 °F 66% 30.22 in 10.0 mi Calm Calm - N/A   Clear
11:35 PM 34.3 °F 25.3 °F 70% 30.23 in 10.0 mi Calm Calm - N/A   Clear
11:55 PM 32.9 °F 25.5 °F 74% 30.22 in 10.0 mi Calm Calm - N/A   Clear